Location: Unspecified
(43.8044°N, 11.0278°E)
Time: 23:59:00
(UTC+02:00)

Cosmos 1674 - Visible Passes

Search period start: 25 August 2016 00:00
Search period end: 04 September 2016 00:00
Orbit: 499 x 526 km, 82.5° (Epoch: 24 August)

Date Brightness Start Highest point End Pass type
(mag) Time Alt. Az. Time Alt. Az. Time Alt. Az.
25 Aug 6.1 01:27:56 10° NNW 01:27:57 10° NNW 01:27:57 10° NNW visible
26 Aug 6.1 01:12:00 10° N 01:12:02 10° N 01:12:02 10° N visible
27 Aug 6.1 00:56:06 10° N 00:56:07 10° N 00:56:07 10° N visible
